Flag for U.S.A. Weather past 2 weeks in Glennallen, Alaska, U.S.A.

Now
-13 °F

Low clouds.


Feels Like: -13 °F
Forecast: -31 / -20 °F
Wind: No wind

Location: Gulkana Airport

Current Time: Feb 1, 2015 at 1:57:17 PM

Latest Report: Feb 1, 2015 at 12:53 PM


Visibility: 10 mi

Pressure: 30.56 "Hg

Humidity: 78%

Dew point: -18 °F

Location of GlennallenLocation

Historic Weather in Glennallen — Graph

°F

Glennallen temperature yesterday

Maximum temperature yesterday: -11 °F (at 1:53 PM)
Minimum temperature yesterday: -26 °F (at 11:53 PM)
Average temperature yesterday: -19 °F

Past Weeks' High & Low Weather Summary

 TemperatureHumidityPressure
High19 °F (Jan 17, 7:53 PM)88% (Jan 18, 12:53 AM)30.95 "Hg (Jan 18, 12:53 AM)
Low-33 °F (Jan 28, 3:53 AM)65% (Jan 28, 11:53 AM)29.26 "Hg (Jan 23, 7:04 PM)
Average-4 °F77%30.02 "Hg
* Reported Jan 17 12:53 PM — Feb 1 12:53 PM, Glennallen, Weather by CustomWeather, © 2014

Note: Actual official high and low records may vary slightly from our data, if they occured in-between our weather recording intervals... More about our weather records

Advertising

Glennallen weather history for previous 24 hours

 ConditionsComfort  
Time TempWeatherWind HumidityBarometerVisibility
12:53 PM
Feb 1
-13 °FLow clouds.No wind78%30.56 "Hg10 mi
11:53 AM-15 °FLow clouds.No wind77%30.59 "Hg10 mi
10:53 AM-20 °FLow clouds.No wind81%30.62 "Hg10 mi
9:53 AM-20 °FLow clouds.3 mph73%30.63 "Hg6 mi
8:53 AM-22 °FLow clouds.No wind73%30.64 "Hg10 mi
7:53 AM-22 °FLow clouds.3 mph73%30.63 "Hg10 mi
6:53 AM-21 °FLow clouds.No wind72%30.63 "Hg10 mi
5:53 AM-22 °FLow clouds.5 mph77%30.65 "Hg10 mi
4:53 AM-24 °FLow clouds.3 mph73%30.66 "Hg10 mi
3:53 AM-22 °FOvercast.3 mph77%30.66 "Hg10 mi
2:53 AM-23 °FOvercast.5 mph69%30.69 "Hg10 mi
1:53 AM-26 °FClear.No wind68%30.71 "Hg10 mi
12:53 AM-25 °FClear.No wind73%30.72 "Hg10 mi
11:53 PM
Jan 31
-26 °FPassing clouds.3 mph72%30.74 "Hg10 mi
10:53 PM-24 °FClear.3 mph73%30.76 "Hg10 mi
9:53 PM-23 °FPassing clouds.No wind69%30.77 "Hg10 mi
8:53 PM-24 °FClear.No wind73%30.79 "Hg10 mi
7:53 PM-22 °FClear.No wind73%30.79 "Hg10 mi
6:53 PM-19 °FClear.No wind69%30.80 "Hg10 mi
5:53 PM-18 °FClear.No wind69%30.81 "Hg10 mi
5:01 PM-14 °FPassing clouds.3 mph71%30.55 "Hg10 mi
3:53 PM-12 °FPassing clouds.No wind74%30.82 "Hg10 mi
2:53 PM-11 °FSunny.No wind78%30.85 "Hg7 mi
1:53 PM-11 °FPassing clouds.No wind78%30.86 "Hg10 mi
Weather by CustomWeather, © 2014

See weather overviewHow to use our weather pages